Flag for Brazil Weather past 2 weeks in Cuiabá, Mato Grosso, Brazil

Now
81 °F

Passing clouds.


Feels Like: 81 °F
Forecast: 70 / 92 °F
Wind: 8 mph from North

Location: Cuiaba Aeroporto

Current Time: Jul 22, 2014 at 11:56:20 PM

Latest Report: Jul 22, 2014 at 11:00 PM


Visibility: N/A

Pressure: 29.92 "Hg

Humidity: 51%

Dew point: 61 °F

Location of CuiabáLocation

Historic Weather in Cuiabá — Graph

°F

Cuiabá temperature yesterday

Maximum temperature yesterday: 93 °F (at 1:00 PM)
Minimum temperature yesterday: 63 °F (at 6:00 AM)
Average temperature yesterday: 78 °F

Past Weeks' High & Low Weather Summary

 TemperatureHumidityPressure
High95 °F (Jul 13, 2:00 PM)100% (Jul 11, 7:00 AM)30.21 "Hg (Jul 11, 7:00 AM)
Low63 °F (Jul 12, 5:00 AM)20% (Jul 13, 2:00 PM)29.89 "Hg (Jul 21, 2:00 PM)
Average74 °F68%30.04 "Hg
* Reported Jul 7 11:00 PM — Jul 22 11:00 PM, Cuiabá, Weather by CustomWeather, © 2014

Note: Actual official high and low records may vary slightly from our data, if they occured in-between our weather recording intervals... More about our weather records

Advertising

Cuiabá weather history for previous 24 hours

 ConditionsComfort  
Time TempWeatherWind HumidityBarometerVisibility
11:00 PM
Jul 22
81 °FPassing clouds.8 mph51%29.92 "HgN/A
10:00 PM77 °FPassing clouds.3 mph61%29.92 "HgN/A
9:00 PM82 °FPassing clouds.3 mph48%29.92 "HgN/A
8:00 PM82 °FPassing clouds.7 mph48%29.89 "HgN/A
1:00 PM93 °FScattered clouds.13 mph39%29.92 "HgN/A
12:00 PM91 °FScattered clouds.17 mph38%29.95 "HgN/A
11:00 AM91 °FSunny.22 mph34%29.95 "Hg10 mi
10:00 AM88 °FSunny.7 mph40%29.98 "Hg10 mi
9:00 AM82 °FSunny.7 mph48%30.01 "Hg10 mi
8:00 AM75 °FSunny.6 mph57%29.98 "Hg10 mi
7:00 AM70 °FSunny.5 mph73%29.98 "Hg10 mi
6:00 AM68 °FClear.6 mph78%29.95 "Hg10 mi
5:00 AM68 °FClear.5 mph78%29.92 "Hg10 mi
4:00 AM70 °FClear.6 mph73%29.92 "Hg10 mi
3:00 AM70 °FClear.6 mph73%29.92 "Hg10 mi
2:00 AM72 °FClear.6 mph73%29.92 "Hg10 mi
1:00 AM70 °FClear.6 mph78%29.95 "Hg10 mi
12:00 AM72 °FClear.No wind73%29.95 "Hg10 mi
11:00 PM
Jul 21
73 °FClear.2 mph69%29.95 "Hg10 mi
Weather by CustomWeather, © 2014

See weather overviewHow to use our weather pages